Location: Unspecified
(0.0000°N, 0.0000°E)
Time: 20:39:23
(UTC+02:00)

Centaur D-1AR AC-41 - Visible Passes

Search period start: 17 October 2017 00:00
Search period end: 27 October 2017 00:00
Orbit: 633 x 36207 km, 21.3° (Epoch: 16 October)

Date Brightness Start Highest point End Pass type
(mag) Time Alt. Az. Time Alt. Az. Time Alt. Az.
17 Oct 9.1 16:42:57 10° E 19:25:33 25° E 20:43:27 10° ESE visible
18 Oct 6.7 20:06:37 10° WNW 21:59:25 43° WNW 06:02:39 10° SE visible
19 Oct 7.4 17:21:36 10° WNW 20:44:04 74° NNW 03:31:30 10° SE visible
20 Oct 7.4 14:46:21 10° WNW 22:35:45 89° SE 00:58:03 10° ESE visible
21 Oct 5.7 12:14:17 10° W 20:38:03 48° E 22:16:29 10° ESE visible
22 Oct 10.7 21:44:03 10° WNW 23:06:04 23° WNW 01:38:57 10° W visible
23 Oct 5.5 07:06:58 10° SW 07:13:16 19° S 07:16:33 10° SE visible
23 Oct 7.0 18:40:48 10° WNW 20:50:21 59° NW 04:45:07 10° SE visible
24 Oct 7.6 16:01:36 10° WNW 21:07:21 81° NNW 02:13:15 10° SE visible
25 Oct 6.6 13:28:07 10° WNW 21:47:48 72° ESE 23:37:25 10° ESE visible
26 Oct 9.0 15:54:44 10° E 19:19:45 31° E 20:46:17 10° ESE visible
